Погода в Каорле

Италия     45°36′15″N   12°52′24″E
темп.,
°C
ветер,
м/с
пор.,
м/с
влажн.,
%
обл.,
%
осадки,
мм/ч
давл.,
гПа
погр.,
м
11 апреля, вс
вс1123:00+11ю5781100 0.4 1021316
02:00+11в4686100 1.1 1020395
05:00+11ююв7894100 4.3 1019419
08:00+10юв6892100 10.4 1019416
11:00+12юв5791100 5.1 1019477
14:00+12ююв8892100 8.4 1018558
17:00+12ююв4592100 5.8 1018385
20:00+12ююз2491100 6.6 1019295
12 апреля, пн
пн1223:00+11с1193100 0.3 102074
02:00+11с1192100 0.3 101969
05:00+12ююв1293100 0.8 1018154
08:00+12ююв2395100 2.1 1018225
11:00+12ю3597100 3.1 1017297
14:00+12ююв7895100 8.8 1017422
17:00+12ююв8996100 5.1 1015338
20:00+12вюв6996100 11.9 1015418
13 апреля, вт
вт1323:00+12ююв71095100 12.0 1014519
02:00+8св121394100 32.8 1015546
05:00+7ссв151891100 3.8 1014487
08:00+7св131790100 9.8 1017851
11:00+6св101590100 2.8 1019959
14:00+7св6882100 4.1 1020651
17:00+8в3375100 0.0 1020427
20:00+9зюз2273100 0.1 1021493
14 апреля, ср
ср1423:00+9зюз5480100 0.1 1022586
02:00+8зсз6686100 0.3 1022504
05:00+8зсз5687100 0.1 1022367
08:00+7сз3386100 0.1 1022266
11:00+9сз117174 0.2 1023391
14:00+9ю22673 0.3 1022405
17:00+10ю336011 0.0 1021287
20:00+11ю115298 0.0 1021250
15 апреля, чт
чт1523:00+11юв115040 0.0 1022444
02:00+9с226197 0.1 1022190
05:00+7ссв557916 0.3 1022214
08:00+6ссв446517 0.3 1022183
11:00+9ссв3357100 0.0 1023340
14:00+10ю21565 0.0 1022387
17:00+10юз43575 0.0 1021311
20:00+11зюз33545 0.0 1021264